Location: Great Snoring
(52.8667°N, 0.8833°E)
Time: 19:07:13
(UTC+00:00)

Ariane Rocket - Pass Details

Date: 19 May 2025
Orbit: 755 x 765 km, 98.5° (Epoch: 23 June)

Event Time Altitude Azimuth Distance (km) Brightness Sun altitude
Exits shadow 21:17:05 10° 165° (SSE) 2,265 4.9 -9.7°
Maximum altitude 21:22:05 86° 255° (WSW) 773 3.0 -10.2°
Drops below altitude 10° 21:27:12 10° 344° (NNW) 2,313 6.8 -10.6°
Sets 21:29:31 0° 345° (NNW) 3,245 7.8 -10.8°
